Colorado Springs, CO

12:12 AM MST on February 12, 2016 (GMT -0700)
Usaf Academy

Weather History for KAFF - March, 2013

Change the Weather History Date:

Wednesday, March 6, 2013

  Actual Average Record
Temperature  
Mean Temperature 38 °F -  
Max Temperature 58 °F 44 °F 68 °F (2006)
Min Temperature 19 °F 22 °F 5 °F (2008)
Degree Days  
Heating Degree Days 26    
Moisture  
Dew Point 18 °F    
Average Humidity 47    
Maximum Humidity 86    
Minimum Humidity 14    
Precipitation  
Precipitation 0.00 in - - ()
Sea Level Pressure  
Sea Level Pressure 29.99 in    
Wind  
Wind Speed 7 mph (South)    
Max Wind Speed 14 mph    
Max Gust Speed -    
Visibility 10 miles    
Events      
Averages and records for this station are not official NWS values.
T = Trace of Precipitation, MM = Missing Value Source: NWS Daily Summary

Daily Weather History Graph

Daily Weather History Graph

Search for Another Location

Airport or City:

Trip Planner

Search our weather history database for the weather conditions in past years. The results will help you decide how hot, cold, wet, or windy it might be!

Date:

Astronomy

Mar. 06, 2013 Rise Set
Actual Time 6:23 AM MST 5:57 PM MST
Civil Twilight 5:57 AM MST 6:24 PM MST
Nautical Twilight 5:26 AM MST 6:55 PM MST
Astronomical Twilight 4:55 AM MST 7:26 PM MST
Moon 2:33 AM MST (3/6) 12:44 PM MST (3/6)
Length of Visible Light 12h 26m
Length of Day
11h 33m
Waning Crescent, 29% of the Moon is Illuminated
Mar 6
Waning Crescent
Mar 11
New
Mar 19
First Quarter
Mar 27
Full
Apr 2
Last Quarter

Hourly Weather History & Observations

Time (MST) Temp. Windchill Dew Point Humidity Pressure Visibility Wind Dir Wind Speed Gust Speed Precip Events Conditions
12:58 AM 19.0 °F 11.1 °F 15.4 °F 86% 30.23 in 10.0 mi North 5.8 mph - N/A   Clear
1:58 AM 19.4 °F 14.3 °F 15.4 °F 85% 30.21 in 10.0 mi Variable 3.5 mph - N/A   Clear
2:58 AM 20.5 °F 10.0 °F 16.0 °F 83% 30.15 in 10.0 mi North 9.2 mph - N/A   Clear
3:58 AM 30.4 °F 20.0 °F 15.4 °F 54% 30.10 in 10.0 mi WNW 13.8 mph - N/A   Clear
4:58 AM 31.3 °F 25.6 °F 11.8 °F 45% 30.10 in 10.0 mi SE 5.8 mph - N/A   Scattered Clouds
5:58 AM 45.3 °F 42.3 °F 3.7 °F 18% 30.04 in 10.0 mi Variable 5.8 mph - N/A   Overcast
6:58 AM 30.7 °F 26.0 °F 16.7 °F 56% 30.11 in 10.0 mi WNW 4.6 mph - N/A   Overcast
7:58 AM 33.4 °F 28.1 °F 15.4 °F 48% 30.13 in 10.0 mi SE 5.8 mph - N/A   Partly Cloudy
8:58 AM 35.2 °F 32.4 °F 12.0 °F 38% 30.09 in 10.0 mi Variable 3.5 mph - N/A   Partly Cloudy
9:58 AM 42.8 °F 39.3 °F 17.1 °F 36% 30.08 in 10.0 mi SW 5.8 mph - N/A   Partly Cloudy
10:58 AM 45.1 °F 42.8 °F 14.5 °F 29% 30.03 in 10.0 mi South 4.6 mph - N/A   Scattered Clouds
11:58 AM 53.6 °F - 5.4 °F 14% 29.99 in 10.0 mi South 9.2 mph - N/A   Partly Cloudy
12:58 PM 58.3 °F - 13.3 °F 17% 29.90 in 10.0 mi South 13.8 mph - N/A   Clear
1:58 PM 57.4 °F - 11.1 °F 16% 29.89 in 10.0 mi South 11.5 mph - N/A   Clear
2:58 PM 58.6 °F - 18.3 °F 21% 29.86 in 10.0 mi South 11.5 mph - N/A   Clear
3:58 PM 55.4 °F - 24.6 °F 30% 29.83 in 10.0 mi SSE 10.4 mph - N/A   Clear
4:58 PM 52.0 °F - 28.2 °F 40% 29.83 in 10.0 mi South 12.7 mph - N/A   Clear
5:58 PM 45.3 °F 40.6 °F 26.6 °F 48% 29.83 in 10.0 mi SSE 9.2 mph - N/A   Clear
6:58 PM 41.4 °F 36.8 °F 25.0 °F 52% 29.92 in 10.0 mi South 6.9 mph - N/A   Clear
7:58 PM 37.2 °F 32.6 °F 24.8 °F 61% 29.95 in 10.0 mi NW 5.8 mph - N/A   Clear
8:58 PM 33.6 °F 29.4 °F 23.9 °F 68% 29.96 in 10.0 mi NNE 4.6 mph - N/A   Clear
9:58 PM 35.8 °F 30.1 °F 23.4 °F 61% 29.88 in 10.0 mi Variable 6.9 mph - N/A   Clear
10:58 PM 30.4 °F - 23.0 °F 74% 29.88 in 10.0 mi Variable 2.3 mph - N/A   Clear
11:58 PM 37.2 °F 33.6 °F 20.5 °F 51% 29.79 in 10.0 mi NNW 4.6 mph - N/A   Clear